RH
6 6 5 6 24 38 34 23 26 24 31 37 39 38 40 43 44 62 70 55 48 53 57 59 62 59 56 54 52 53 47 48 42 49 61 18 15 18 30 71 62 35 31 34 31 10 7 8 9
6 6 7 34 59 37 21 25 23 36 22 26 32 33 43 48 44 55 52 49 47 41 44 57 63 62 60 58 56 55 48 52 28 33 18 20 17 16 34 73 64 40 34 36 33 17 7 8 9
6 7 31 69 37 39 26 30 36 38 26 11 9 17 38 42 44 43 42 52 48 39 34 38 61 62 64 64 64 60 55 53 40 36 48 38 19 17 34 76 69 46 36 36 35 24 8 9 11
7 11 41 47 33 26 32 33 41 32 17 7 19 17 22 19 24 36 39 58 56 46 47 51 62 62 66 70 65 66 62 58 49 45 39 52 25 55 67 83 76 58 43 37 36 33 12 10 12
8 29 54 31 36 31 35 38 30 32 36 18 19 32 14 19 12 15 24 49 56 65 69 64 73 68 72 72 67 65 65 62 59 47 30 44 70 79 85 90 92 81 58 40 38 33 24 11 14
18 47 49 37 28 32 27 27 19 45 40 37 24 20 15 16 13 13 16 27 49 51 67 69 73 71 67 67 62 61 60 60 61 62 51 31 51 66 69 86 94 90 74 53 42 38 28 16 12
25 41 36 27 28 31 37 18 26 40 43 40 14 33 25 13 14 15 14 24 41 46 51 63 71 65 65 63 60 59 57 54 61 67 65 50 55 58 62 76 88 91 86 71 51 47 32 25 14
24 31 28 25 24 32 26 21 12 20 38 30 29 26 27 12 12 10 12 14 17 39 42 48 56 56 56 55 57 54 55 54 64 68 69 61 47 51 54 59 78 91 92 84 75 65 48 30 21
14 23 30 25 26 33 28 18 11 11 11 14 16 19 16 12 13 11 10 10 11 16 21 32 40 43 54 61 60 60 62 59 60 65 66 68 66 55 45 44 71 71 79 88 83 79 65 46 28
11 14 33 32 31 31 26 20 19 19 18 18 17 17 15 16 16 17 16 12 10 11 14 27 37 47 47 40 59 73 73 70 66 61 56 59 60 62 62 37 40 67 75 77 76 79 79 64 41
11 23 34 31 30 22 19 18 17 17 16 16 15 15 14 14 15 16 15 15 15 12 11 17 26 38 46 77 85 79 78 74 70 66 61 60 58 58 58 58 51 43 51 73 75 74 86 83 63
20 20 27 25 24 22 21 18 16 13 13 15 14 14 13 12 12 12 12 14 14 15 15 12 17 28 41 55 72 86 88 79 76 73 71 69 63 55 52 59 59 67 62 56 60 61 73 90 92
25 25 25 25 25 24 20 16 15 11 13 14 14 13 11 10 9 9 9 9 9 10 11 13 13 13 28 40 51 71 83 80 81 80 80 82 76 69 62 57 57 69 69 64 68 69 70 76 83
34 34 33 30 27 22 16 15 16 13 12 12 11 11 10 9 9 9 10 9 9 9 9 9 11 13 12 18 34 59 81 83 83 84 86 87 80 71 61 62 62 63 64 70 78 81 79 82 81
34 30 26 22 18 16 14 12 16 12 13 12 12 12 12 12 12 11 11 11 10 10 9 9 8 10 11 12 12 29 46 64 65 73 84 84 79 70 69 69 66 76 79 77 75 85 85 90 79
22 21 19 21 16 14 13 12 16 13 13 13 13 13 13 12 12 11 11 11 10 10 9 9 9 9 8 10 11 11 25 44 49 52 60 81 82 77 68 68 66 67 75 86 87 86 88 86 83
21 40 37 36 20 21 17 15 14 14 14 14 14 13 13 12 12 11 10 10 10 10 10 9 9 9 9 9 8 10 10 20 39 45 48 64 81 82 72 65 60 61 74 82 81 87 87 81 77
46 32 38 37 34 25 20 16 15 16 15 14 13 14 14 12 12 10 9 8 8 9 9 9 9 9 9 8 9 8 8 10 22 50 40 46 74 73 75 70 61 69 68 72 72 81 88 78 58
41 39 34 40 46 32 23 20 17 15 14 14 21 22 18 18 17 16 11 12 16 16 13 10 9 9 9 8 8 9 9 8 10 44 41 40 58 65 69 69 69 67 65 68 67 71 61 43 39
32 31 40 45 46 39 27 28 18 22 24 27 23 30 35 37 42 45 44 40 41 37 33 29 20 15 12 10 9 12 11 10 9 10 23 41 52 62 79 77 67 74 65 54 55 53 44 44 44
42 36 53 54 38 37 66 38 46 49 42 41 41 48 49 49 47 44 46 49 49 48 45 36 35 32 21 15 18 25 25 20 13 11 10 25 50 72 74 85 76 76 57 55 53 48 48 46 43
64 65 37 44 69 74 62 75 44 66 65 84 46 53 55 49 47 50 47 53 51 51 55 46 33 47 35 27 24 27 29 24 18 16 17 14 41 72 82 87 82 82 62 60 53 52 51 46 38
79 50 42 68 94 96 74 91 63 64 62 59 55 54 50 49 50 51 49 44 43 45 51 57 50 65 49 36 30 25 24 24 21 24 22 28 45 72 72 92 89 83 70 67 59 55 48 41 31
48 52 90 93 94 93 72 79 71 71 60 52 58 55 55 58 57 56 59 69 72 72 68 74 68 71 52 38 34 31 27 23 21 20 22 25 26 56 70 79 86 87 85 71 59 52 44 33 29
89 85 78 94 86 88 76 82 68 59 58 65 61 60 68 74 67 63 71 66 65 72 80 85 70 58 48 51 50 37 32 28 24 21 22 21 22 27 54 78 86 87 80 61 59 54 37 36 74
94 92 87 86 89 88 62 80 56 57 62 60 71 84 87 86 87 69 68 80 97 88 97 94 94 69 56 58 45 26 23 27 28 25 39 32 38 42 58 70 73 70 66 65 62 42 49 81 98
91 93 98 84 76 88 72 64 64 55 59 75 88 83 92 94 80 81 96 98 100 93 84 90 88 93 95 74 70 57 64 57 51 57 48 28 48 47 61 66 62 61 65 64 46 45 50 84 98
96 95 99 90 95 92 66 74 67 57 64 76 81 74 73 94 90 94 99 100 99 100 98 90 86 78 80 80 73 65 70 68 64 69 46 32 50 62 72 69 70 67 62 52 49 41 40 76 97
92 84 86 94 87 98 92 67 65 53 64 79 69 54 44 44 56 99 98 98 100 99 97 99 88 74 65 58 62 67 61 54 38 45 46 42 49 79 79 72 64 58 62 59 50 39 85 99 99
98 82 86 90 99 96 98 72 63 58 63 75 56 43 37 42 44 46 89 99 99 98 98 99 99 91 63 86 97 99 79 69 68 57 66 62 56 63 69 74 72 66 60 60 73 95 100 100 100
Wind_Speed
18 18 18 18 9 6 11 5 12 15 14 14 16 18 14 11 14 9 9 14 19 17 11 7 10 9 6 5 5 3 2 1 1 1 1 3 1 3 6 4 3 3 4 7 10 10 8 6 6
18 20 21 17 6 10 10 15 14 8 18 20 17 15 14 9 17 12 8 10 15 21 19 11 11 9 8 7 5 5 4 3 2 1 0 0 2 4 6 4 3 3 3 5 8 9 8 6 6
18 23 15 10 6 12 5 6 13 18 12 11 10 18 20 19 24 19 9 10 11 13 18 19 15 13 12 10 7 5 4 3 2 2 2 1 3 5 7 5 3 2 2 4 6 8 8 6 5
20 23 16 12 8 7 5 12 13 16 11 11 13 13 19 23 18 22 15 12 12 12 15 17 16 16 15 14 12 10 8 6 5 3 3 3 4 6 6 5 5 3 2 2 4 6 6 4 3
23 19 8 10 12 8 9 12 10 3 4 6 11 10 12 18 18 16 22 18 13 12 14 15 17 18 16 15 15 13 11 9 8 6 6 6 5 7 6 6 7 4 2 1 2 4 5 4 2
19 15 8 11 9 9 13 13 10 7 5 8 8 10 13 9 11 14 16 22 20 15 14 15 16 16 16 16 16 14 14 14 14 13 10 9 8 9 8 8 9 5 4 3 1 1 2 2 1
17 11 11 7 14 11 10 12 12 11 6 8 10 8 12 11 14 13 12 18 23 21 18 18 17 17 18 18 18 17 17 16 17 15 13 12 11 12 11 11 11 9 6 6 4 4 2 2 2
20 16 5 9 4 9 17 12 14 14 16 17 12 7 14 13 12 13 15 16 21 26 24 25 25 23 23 24 22 23 21 19 16 14 12 12 13 15 14 13 13 12 9 9 8 7 7 5 4
19 13 7 4 8 11 14 13 12 12 14 13 13 18 17 15 13 15 16 18 20 21 26 28 28 27 24 23 25 26 24 22 22 19 16 13 14 15 16 15 15 16 14 12 11 11 10 9 7
19 13 8 13 16 16 12 11 11 11 12 13 15 14 18 19 21 17 17 19 20 22 23 25 29 30 29 27 25 25 26 25 25 25 23 21 20 18 17 17 17 19 16 16 14 13 13 12 11
18 15 15 16 18 13 12 11 14 13 10 16 16 18 20 18 19 19 18 19 21 23 24 26 28 30 30 28 28 26 26 26 27 27 25 23 24 23 21 19 19 19 18 17 16 15 15 15 15
16 18 14 13 14 14 15 15 17 15 13 18 17 19 19 21 21 21 22 21 22 23 24 27 29 30 32 33 33 31 30 28 29 29 28 26 27 26 24 23 22 19 20 20 20 18 18 17 16
15 14 14 15 16 17 16 18 21 14 18 19 19 21 22 23 23 24 23 23 24 26 26 27 30 33 34 36 35 35 35 33 31 30 27 27 28 29 26 23 25 22 22 22 20 19 18 19 19
13 13 14 16 18 18 18 18 23 16 20 21 22 23 24 25 25 27 26 25 26 26 26 29 31 33 36 38 38 38 38 37 34 32 29 28 28 27 26 22 22 24 25 24 22 19 19 17 18
11 12 13 14 16 19 19 19 20 17 16 20 22 23 27 28 29 31 32 32 30 30 30 29 31 34 37 39 41 41 41 41 41 38 34 33 31 28 26 23 21 22 24 24 22 21 21 20 20
9 10 10 13 13 16 18 20 17 21 20 20 24 26 28 30 32 34 36 38 37 37 34 32 33 34 36 40 41 43 44 45 43 42 37 36 34 32 30 28 25 24 25 25 24 23 22 21 22
6 2 8 11 15 17 18 21 19 20 23 26 26 28 30 32 34 37 37 38 40 39 40 37 36 38 37 38 41 43 46 47 46 47 42 37 36 36 32 31 29 28 26 26 26 25 23 23 23
2 5 7 8 15 18 19 24 22 21 24 25 26 27 31 33 35 38 40 39 40 41 42 42 40 41 41 40 41 43 47 47 48 46 47 40 39 37 36 34 33 30 27 26 26 24 24 23 22
8 7 9 8 14 21 23 27 24 22 24 25 27 30 30 32 34 37 41 40 39 39 40 39 41 39 41 42 42 43 45 44 49 48 47 48 40 40 39 35 34 31 29 27 26 25 24 23 22
10 9 4 12 14 17 20 29 23 20 19 22 25 25 28 31 34 34 37 36 37 40 40 40 40 40 39 43 43 43 44 45 43 50 51 48 46 43 41 38 37 34 32 29 29 29 27 27 28
4 6 9 10 15 12 16 21 9 13 14 20 20 21 29 32 37 38 40 37 35 37 40 39 38 39 38 40 41 42 43 46 44 45 51 51 47 43 40 40 40 37 35 31 30 29 31 35 35
2 10 9 9 11 5 10 8 10 12 20 16 23 28 30 36 36 39 41 41 43 41 41 41 35 37 35 33 38 40 42 42 43 41 42 50 47 45 42 43 43 41 38 34 34 34 37 38 42
4 9 11 10 11 15 5 7 3 11 18 20 23 33 34 36 35 34 35 38 43 47 42 40 31 31 34 32 31 35 38 39 38 39 41 44 44 44 44 45 44 42 41 39 38 39 39 42 43
7 7 8 7 5 5 4 9 9 12 18 23 32 33 31 27 21 24 28 26 28 29 29 29 24 24 27 27 26 27 31 33 33 32 35 40 45 43 44 42 43 43 43 41 40 40 42 41 42
3 7 2 2 3 4 4 9 17 20 20 29 28 23 21 18 22 27 23 24 23 24 15 18 18 20 22 23 23 25 28 31 35 34 32 36 42 46 40 40 42 43 43 42 42 40 40 41 37
3 2 2 3 3 4 17 8 7 21 24 23 18 16 15 20 24 27 20 15 18 21 7 11 12 17 20 21 21 22 25 27 30 32 30 34 38 40 37 37 41 41 42 41 40 37 38 36 33
3 2 4 5 8 4 7 12 20 16 18 14 12 14 15 18 21 24 17 12 14 15 9 8 14 15 17 20 21 21 20 23 22 24 27 33 34 37 38 37 39 39 38 37 37 36 35 37 33
5 4 1 2 3 4 6 11 13 17 15 15 16 14 17 19 21 21 20 11 13 16 14 13 17 20 22 21 20 19 19 20 21 22 26 31 34 34 32 35 36 36 38 35 38 39 37 39 36
3 2 2 4 4 2 4 7 11 16 13 10 10 12 16 19 23 23 20 17 17 12 13 12 12 11 12 14 14 14 13 15 19 19 24 28 33 34 33 36 37 38 40 38 41 40 35 28 30
7 6 4 3 0 4 5 12 9 15 11 10 14 16 18 18 19 19 21 17 16 18 14 11 8 13 13 11 11 14 10 14 16 22 24 26 31 34 34 36 38 38 40 44 40 36 35 26 21
Wind_Direction
190 184 178 170 172 201 237 217 208 208 182 190 209 175 163 197 193 208 223 224 230 216 211 215 195 186 185 182 163 161 154 91 90 173 265 23 92 158 158 150 128 106 61 49 41 37 55 70 100
193 176 169 162 188 210 255 215 227 219 198 206 206 188 166 219 206 207 216 222 233 229 223 217 199 197 199 206 201 207 198 184 174 203 288 47 138 168 165 169 150 128 79 53 47 43 49 70 95
183 166 154 161 199 210 224 158 176 210 218 193 193 190 184 215 209 216 226 225 228 226 224 222 216 210 210 207 212 225 223 214 223 190 175 155 162 171 174 178 179 151 96 60 49 50 54 62 83
176 173 166 188 198 223 152 162 203 231 217 196 191 193 208 217 228 220 219 222 221 224 221 211 212 218 218 220 222 222 226 231 236 233 206 193 159 162 177 181 189 199 161 80 45 42 55 65 79
172 169 163 210 184 201 174 195 210 156 219 202 192 228 225 230 241 231 216 220 213 217 214 206 214 214 215 220 225 232 233 230 236 236 226 217 197 205 205 204 197 205 209 163 59 25 32 40 68
171 165 190 209 200 196 239 212 184 174 218 223 195 228 239 232 231 238 226 221 225 228 223 218 211 211 220 225 230 239 247 256 255 251 245 230 214 224 228 220 223 226 229 217 228 335 2 8 358
169 179 163 226 203 210 214 210 164 175 225 225 218 187 254 234 251 246 239 224 226 232 233 232 225 223 226 233 238 242 249 252 250 249 240 234 233 234 234 231 226 233 249 257 245 257 265 301 312
177 186 191 184 188 189 227 228 224 207 195 225 232 209 238 249 246 250 244 236 228 233 238 239 240 241 249 247 246 248 248 246 241 236 238 236 235 237 241 240 237 239 243 248 260 269 269 266 268
193 171 168 182 208 215 235 242 227 233 239 248 241 224 242 273 264 254 247 245 243 237 237 241 246 248 246 246 254 251 243 240 243 247 249 242 243 244 241 241 241 241 243 247 255 262 266 268 270
194 186 213 201 204 213 233 231 250 244 244 252 251 249 250 255 262 266 263 257 252 248 243 241 240 247 249 251 249 248 245 243 244 247 248 251 247 244 251 251 245 247 249 254 259 264 269 271 269
199 188 216 214 230 250 256 252 253 250 253 255 259 265 273 273 275 273 266 263 260 258 251 246 245 245 248 249 250 250 246 248 251 250 252 248 252 254 252 251 254 256 251 254 262 264 265 268 267
201 215 224 240 248 259 265 268 268 268 264 274 274 274 275 279 278 274 273 269 266 262 261 257 250 246 246 248 249 250 252 251 250 253 254 257 259 256 256 253 253 255 259 255 256 259 260 264 270
212 221 238 253 263 268 273 277 277 279 276 278 280 282 283 284 283 280 277 274 268 266 261 258 255 252 246 246 248 251 251 250 251 251 251 255 259 264 261 256 258 255 254 260 260 253 252 260 262
219 246 252 260 268 272 274 279 283 294 285 286 287 286 286 286 283 282 281 278 275 271 264 260 257 254 251 249 246 248 250 252 249 249 248 251 258 257 262 262 260 260 255 253 256 254 254 254 266
238 249 258 262 268 276 283 282 285 285 290 291 291 289 289 288 285 284 282 279 274 274 271 266 260 257 254 250 249 245 249 251 252 251 248 251 252 252 252 253 251 260 258 251 252 258 260 263 267
231 248 260 267 267 272 277 273 284 291 289 284 284 286 285 285 285 283 282 281 281 277 271 269 266 260 257 255 250 247 245 248 251 253 248 249 250 247 248 251 249 249 253 252 248 251 257 261 266
230 252 270 271 273 278 272 276 284 288 287 286 286 285 284 283 280 280 279 281 281 278 276 271 265 262 259 256 255 249 247 246 247 251 252 248 246 246 246 250 247 249 244 249 253 249 247 255 264
252 245 261 279 282 279 278 285 280 282 282 283 285 283 278 280 282 280 281 275 274 276 274 272 266 262 258 256 254 253 249 244 245 248 249 250 244 244 245 244 246 249 244 238 242 245 251 255 261
189 207 232 247 272 284 293 290 291 289 283 283 276 273 278 275 279 279 278 281 284 281 278 274 271 264 259 254 252 253 253 248 244 243 248 251 245 246 248 246 245 244 244 243 245 247 250 256 266
228 242 286 271 275 286 296 288 296 277 283 277 276 281 283 288 292 293 292 293 290 285 281 276 270 264 257 251 248 250 252 251 244 242 241 245 250 246 244 242 243 242 240 244 247 252 252 264 273
274 243 246 265 291 311 285 306 282 284 283 279 284 288 293 297 295 291 288 287 286 285 284 279 270 262 259 257 250 251 252 253 247 242 240 238 242 245 242 240 241 241 241 248 247 247 263 272 273
226 260 287 295 314 307 308 286 235 255 276 268 292 298 289 298 292 288 289 284 282 280 281 276 270 257 248 248 254 255 253 251 254 247 242 240 238 241 241 238 239 243 244 250 253 258 267 270 275
257 274 290 308 305 299 314 245 312 246 262 283 294 301 302 297 296 296 296 293 286 281 269 269 271 250 241 237 245 253 254 254 255 251 245 237 239 239 239 239 242 247 247 253 258 262 267 271 275
276 305 327 262 291 261 308 227 273 254 284 305 306 305 303 303 309 314 308 310 317 294 269 257 262 246 240 241 244 245 251 252 252 255 250 244 239 242 239 241 243 247 249 256 260 263 266 272 275
2 354 253 272 241 237 279 248 269 291 308 311 313 316 327 330 322 335 334 335 327 337 282 255 258 242 237 241 250 248 246 248 250 249 248 242 241 241 245 243 242 245 251 256 260 262 268 271 271
309 317 291 275 329 296 299 243 280 304 314 312 324 332 345 350 345 341 324 330 344 339 319 241 256 245 244 252 255 256 256 250 248 249 246 238 235 238 238 242 244 248 251 254 256 263 267 269 264
249 237 226 280 292 285 249 272 294 309 315 316 322 351 2 359 351 351 351 322 325 326 316 267 259 261 255 257 260 262 259 255 247 245 242 235 234 237 239 239 240 247 251 253 258 258 267 266 262
217 230 228 248 321 289 283 274 264 325 321 324 338 346 4 7 3 360 4 343 306 317 311 267 257 254 254 260 261 258 258 254 249 248 243 231 231 237 241 241 244 248 253 252 253 260 264 263 264
246 243 221 244 249 312 314 283 305 322 336 354 18 6 0 7 8 7 5 12 7 340 325 300 239 252 254 251 246 243 246 246 243 244 240 234 232 235 238 241 246 244 250 251 256 258 263 249 249
277 289 263 208 17 271 282 275 317 341 319 292 322 336 346 354 359 12 17 15 11 7 8 353 269 245 246 243 242 245 256 247 244 242 243 241 238 238 243 248 249 251 247 256 254 248 251 244 246